QZS-4 (MICHIBIKI-4)

Last updated on Jan. 26, 2020, 4:40 a.m. UTC

1 42965U 17062A   20025.29789767 -.00000345  00000-0  00000+0 0  9998
2 42965  40.8025  13.4918 0750660 268.7949  85.6634  1.00297704  8406
UTC
Height (km)
Latitude
Longitude
Inclination
Orbital Period
UTC large
Height (km)
Speed (km/s)
/
Latitude / Longitude
Inclination (degrees)
Orbital Period (minutes)
Azimuth
Elevation
Range (km)
Doppler Factor
iOS Compass Heading
iOS Angle

Next 30 passes for location: Hong Kong

Rise time Rise Azimuth (degrees) Set time Set Azimuth (degrees) Duration Max altitude (degrees)

No matching passes for this satellites